Hourly Data Report for November 25, 2003

TORONTO CITY
ONTARIO

43°40'00.000" N
79°24'00.000" W
112.50 m
6158355
71508
XTO

Download Data

Hourly Data (November 2003)
Hourly Data Report for November 25, 2003
TIME
LST
Temp Definition
°C
Dew Point Definition
°C
Rel Hum Definition
%
Precip. Amount Definition
mm

Wind Dir Definition
10's deg

Wind Spd Definition
km/h
Visibility Definition
km
Stn Press Definition
kPa
Hmdx Definition


Wind Chill Definition


Weather Definition


00:00 -0.7 -6.7 64   LegendMM LegendMM LegendMM 99.80     LegendNANA
01:00 -0.2 -5.9 65   LegendMM LegendMM LegendMM 99.83     LegendNANA
02:00 -1.5 -2.6 92   LegendMM LegendMM LegendMM 99.95     LegendNANA
03:00 -0.9 -2.6 88   LegendMM LegendMM LegendMM 100.03     LegendNANA
04:00 -1.3 -1.9 96   LegendMM LegendMM LegendMM 100.08     LegendNANA
05:00 -1.4 -2.5 92   LegendMM LegendMM LegendMM 100.14     LegendNANA
06:00 -0.8 -2.6 88   LegendMM LegendMM LegendMM 100.22     LegendNANA
07:00 -0.6 -3.1 83   LegendMM LegendMM LegendMM 100.31     LegendNANA
08:00 -0.1 -3.7 77   LegendMM LegendMM LegendMM 100.38     LegendNANA
09:00 0.2 -4.7 70   LegendMM LegendMM LegendMM 100.44     LegendNANA
10:00 0.8 -4.9 66   LegendMM LegendMM LegendMM 100.50     LegendNANA
11:00 1.5 -5.1 61   LegendMM LegendMM LegendMM 100.50     LegendNANA
12:00 1.8 -5.0 61   LegendMM LegendMM LegendMM 100.50     LegendNANA
13:00 3.0 -5.0 56   LegendMM LegendMM LegendMM 100.44     LegendNANA
14:00 2.7 -5.1 56   LegendMM LegendMM LegendMM 100.39     LegendNANA
15:00 2.9 -4.6 58   LegendMM LegendMM LegendMM 100.41     LegendNANA
16:00 2.8 -5.7 54   LegendMM LegendMM LegendMM 100.39     LegendNANA
17:00 3.0 -5.7 53   LegendMM LegendMM LegendMM 100.35     LegendNANA
18:00 3.4 -3.1 62   LegendMM LegendMM LegendMM 100.29     LegendNANA
19:00 3.2 -3.0 64   LegendMM LegendMM LegendMM 100.30     LegendNANA
20:00 3.4 -3.3 61   LegendMM LegendMM LegendMM 100.28     LegendNANA
21:00 3.3 -2.7 65   LegendMM LegendMM LegendMM 100.25     LegendNANA
22:00 3.5 -2.5 65   LegendMM LegendMM LegendMM 100.21     LegendNANA
23:00 3.6 -2.2 66   LegendMM LegendMM LegendMM 100.23     LegendNANA

Notes on Data Quality.

Legend

  • E = Estimated
  • M = Missing
  • NA = Not Available*
  • [empty] = Indicates an unobserved value
Date modified: